Time,TemperatureF,DewpointF,PressureIn,WindDirection,WindDirectionDegrees,WindSpeedMPH,WindSpeedGustMPH,Humidity,HourlyPrecipIn,Conditions,Clouds,dailyrainin,SoftwareType,DateUTC
2013-03-14 00:00:00,33.1,16.0,30.18,WSW,255,10.0,13.0,49,0.00,,---,0.00,VWS V14.01,2013-03-14 04:00:00,
2013-03-14 00:03:00,33.0,16.4,30.18,NNW,338,6.0,17.0,50,0.00,,---,0.00,VWS V14.01,2013-03-14 04:03:00,
2013-03-14 00:04:00,33.0,15.9,30.18,WNW,292,6.0,17.0,49,0.00,,---,0.00,VWS V14.01,2013-03-14 04:04:00,
2013-03-14 00:09:00,32.9,15.9,30.18,NNW,339,4.0,17.0,49,0.00,,---,0.00,VWS V14.01,2013-03-14 04:09:00,
2013-03-14 00:10:00,32.9,15.9,30.18,WNW,297,6.0,17.0,49,0.00,,---,0.00,VWS V14.01,2013-03-14 04:10:00,
2013-03-14 00:14:00,32.8,15.3,30.18,NW,306,1.0,16.0,48,0.00,,---,0.00,VWS V14.01,2013-03-14 04:14:00,
2013-03-14 00:19:00,32.7,15.2,30.18,NW,306,13.0,16.0,48,0.00,,---,0.00,VWS V14.01,2013-03-14 04:19:00,
2013-03-14 00:20:00,32.7,15.2,30.18,NW,306,13.0,16.0,48,0.00,,---,0.00,VWS V14.01,2013-03-14 04:20:00,
2013-03-14 00:25:00,32.8,15.8,30.18,West,267,7.0,13.0,49,0.00,,---,0.00,VWS V14.01,2013-03-14 04:25:00,
2013-03-14 00:30:00,32.7,15.2,30.18,WNW,285,6.0,7.0,48,0.00,,---,0.00,VWS V14.01,2013-03-14 04:30:00,
2013-03-14 00:35:00,32.6,14.6,30.18,WNW,294,7.0,17.0,47,0.00,,---,0.00,VWS V14.01,2013-03-14 04:35:00,
2013-03-14 00:40:00,32.5,15.0,30.18,NW,325,17.0,17.0,48,0.00,,---,0.00,VWS V14.01,2013-03-14 04:40:00,
2013-03-14 00:45:00,32.4,14.4,30.18,WNW,298,6.0,17.0,47,0.00,,---,0.00,VWS V14.01,2013-03-14 04:45:00,
2013-03-14 00:50:00,32.3,14.3,30.18,NW,314,6.0,17.0,47,0.00,,---,0.00,VWS V14.01,2013-03-14 04:50:00,
2013-03-14 00:51:00,32.3,13.9,30.18,WNW,288,10.0,12.0,46,0.00,,---,0.00,VWS V14.01,2013-03-14 04:51:00,
2013-03-14 00:56:00,32.2,13.8,30.18,NW,315,7.0,15.0,46,0.00,,---,0.00,VWS V14.01,2013-03-14 04:56:00,
2013-03-14 01:00:00,32.2,14.2,30.18,NNW,329,9.0,15.0,47,0.00,,---,0.00,VWS V14.01,2013-03-14 05:00:00,
2013-03-14 01:01:00,32.2,14.2,30.18,NW,311,9.0,15.0,47,0.00,,---,0.00,VWS V14.01,2013-03-14 05:01:00,
2013-03-14 01:07:00,32.2,14.2,30.18,NNW,329,9.0,21.0,47,0.00,,---,0.00,VWS V14.01,2013-03-14 05:07:00,
2013-03-14 01:10:00,32.2,14.2,30.18,WNW,298,8.0,21.0,47,0.00,,---,0.00,VWS V14.01,2013-03-14 05:10:00,
2013-03-14 01:12:00,32.2,14.2,30.18,NW,308,4.0,11.0,47,0.00,,---,0.00,VWS V14.01,2013-03-14 05:12:00,
2013-03-14 01:18:00,32.1,14.2,30.18,West,277,13.0,16.0,47,0.00,,---,0.00,VWS V14.01,2013-03-14 05:18:00,
2013-03-14 01:20:00,32.1,14.2,30.18,WNW,295,11.0,16.0,47,0.00,,---,0.00,VWS V14.01,2013-03-14 05:20:00,
2013-03-14 01:22:00,32.1,14.6,30.18,WNW,299,6.0,11.0,48,0.00,,---,0.00,VWS V14.01,2013-03-14 05:22:00,
2013-03-14 01:28:00,32.0,14.6,30.17,WNW,298,8.0,13.0,48,0.00,,---,0.00,VWS V14.01,2013-03-14 05:28:00,
2013-03-14 01:30:00,32.0,14.6,30.18,West,263,4.0,13.0,48,0.00,,---,0.00,VWS V14.01,2013-03-14 05:30:00,
2013-03-14 01:33:00,31.9,14.4,30.18,WNW,293,8.0,15.0,48,0.00,,---,0.00,VWS V14.01,2013-03-14 05:33:00,
2013-03-14 01:38:00,31.8,14.4,30.18,NW,326,8.0,16.0,48,0.00,,---,0.00,VWS V14.01,2013-03-14 05:38:00,
2013-03-14 01:40:00,31.8,14.4,30.18,WNW,303,7.0,16.0,48,0.00,,---,0.00,VWS V14.01,2013-03-14 05:40:00,
2013-03-14 01:44:00,31.8,14.4,30.18,NW,325,7.0,12.0,48,0.00,,---,0.00,VWS V14.01,2013-03-14 05:44:00,
2013-03-14 01:49:00,31.8,14.4,30.18,NW,306,13.0,17.0,48,0.00,,---,0.00,VWS V14.01,2013-03-14 05:49:00,
2013-03-14 01:50:00,31.8,14.4,30.18,WSW,246,7.0,17.0,48,0.00,,---,0.00,VWS V14.01,2013-03-14 05:50:00,
2013-03-14 01:54:00,31.9,14.0,30.18,West,269,12.0,17.0,47,0.00,,---,0.00,VWS V14.01,2013-03-14 05:54:00,
2013-03-14 01:59:00,31.9,14.0,30.18,West,271,9.0,18.0,47,0.00,,---,0.00,VWS V14.01,2013-03-14 05:59:00,
2013-03-14 02:00:00,31.9,14.0,30.18,West,279,8.0,18.0,47,0.00,,---,0.00,VWS V14.01,2013-03-14 06:00:00,
2013-03-14 02:04:00,31.8,13.9,30.19,WNW,289,7.0,17.0,47,0.00,,---,0.00,VWS V14.01,2013-03-14 06:04:00,
2013-03-14 02:09:00,31.7,13.8,30.18,West,275,5.0,17.0,47,0.00,,---,0.00,VWS V14.01,2013-03-14 06:09:00,
2013-03-14 02:10:00,31.7,13.8,30.18,West,275,5.0,17.0,47,0.00,,---,0.00,VWS V14.01,2013-03-14 06:10:00,
2013-03-14 02:14:00,31.6,13.7,30.19,NW,309,12.0,12.0,47,0.00,,---,0.00,VWS V14.01,2013-03-14 06:14:00,
2013-03-14 02:19:00,31.7,13.8,30.19,West,270,6.0,19.0,47,0.00,,---,0.00,VWS V14.01,2013-03-14 06:19:00,
2013-03-14 02:20:00,31.7,13.8,30.19,West,270,6.0,19.0,47,0.00,,---,0.00,VWS V14.01,2013-03-14 06:20:00,
2013-03-14 02:24:00,31.6,13.7,30.19,WNW,294,5.0,9.0,47,0.00,,---,0.00,VWS V14.01,2013-03-14 06:24:00,
2013-03-14 02:29:00,31.7,13.3,30.19,West,281,14.0,16.0,46,0.00,,---,0.00,VWS V14.01,2013-03-14 06:29:00,
2013-03-14 02:30:00,31.7,13.3,30.19,West,273,16.0,16.0,46,0.00,,---,0.00,VWS V14.01,2013-03-14 06:30:00,
2013-03-14 02:34:00,31.7,13.8,30.19,West,280,7.0,16.0,47,0.00,,---,0.00,VWS V14.01,2013-03-14 06:34:00,
2013-03-14 02:40:00,31.7,13.8,30.19,West,265,8.0,12.0,47,0.00,,---,0.00,VWS V14.01,2013-03-14 06:40:00,
2013-03-14 02:45:00,31.7,14.3,30.19,West,281,12.0,19.0,48,0.00,,---,0.00,VWS V14.01,2013-03-14 06:45:00,
2013-03-14 02:50:00,31.6,14.6,30.19,West,267,8.0,13.0,49,0.00,,---,0.00,VWS V14.01,2013-03-14 06:50:00,
2013-03-14 02:55:00,31.6,15.1,30.20,WNW,292,9.0,19.0,50,0.00,,---,0.00,VWS V14.01,2013-03-14 06:55:00,
2013-03-14 03:00:00,31.5,15.5,30.20,WNW,290,11.0,11.0,51,0.00,,---,0.00,VWS V14.01,2013-03-14 07:00:00,
2013-03-14 03:05:00,31.4,15.8,30.20,West,275,8.0,16.0,52,0.00,,---,0.00,VWS V14.01,2013-03-14 07:05:00,
2013-03-14 03:10:00,31.4,16.3,30.20,WNW,294,12.0,19.0,53,0.00,,---,0.00,VWS V14.01,2013-03-14 07:10:00,
2013-03-14 03:11:00,31.4,16.3,30.20,WNW,298,15.0,17.0,53,0.00,,---,0.00,VWS V14.01,2013-03-14 07:11:00,
2013-03-14 03:16:00,31.3,16.6,30.20,WNW,296,7.0,17.0,54,0.00,,---,0.00,VWS V14.01,2013-03-14 07:16:00,
2013-03-14 03:20:00,31.2,16.5,30.20,West,280,12.0,17.0,54,0.00,,---,0.00,VWS V14.01,2013-03-14 07:20:00,
2013-03-14 03:21:00,31.1,16.4,30.20,NW,316,7.0,16.0,54,0.00,,---,0.00,VWS V14.01,2013-03-14 07:21:00,
2013-03-14 03:27:00,31.0,16.3,30.20,NW,315,3.0,16.0,54,0.00,,---,0.00,VWS V14.01,2013-03-14 07:27:00,
2013-03-14 03:30:00,30.9,16.2,30.20,WNW,299,5.0,16.0,54,0.00,,---,0.00,VWS V14.01,2013-03-14 07:30:00,
2013-03-14 03:32:00,30.9,16.2,30.20,West,263,1.0,5.0,54,0.00,,---,0.00,VWS V14.01,2013-03-14 07:32:00,
2013-03-14 03:37:00,30.8,16.5,30.20,West,261,13.0,13.0,55,0.00,,---,0.00,VWS V14.01,2013-03-14 07:37:00,
2013-03-14 03:40:00,30.8,16.1,30.20,West,260,10.0,13.0,54,0.00,,---,0.00,VWS V14.01,2013-03-14 07:40:00,
2013-03-14 03:42:00,30.8,16.5,30.20,West,281,9.0,15.0,55,0.00,,---,0.00,VWS V14.01,2013-03-14 07:42:00,
2013-03-14 03:47:00,30.7,16.5,30.20,West,267,3.0,17.0,55,0.00,,---,0.00,VWS V14.01,2013-03-14 07:47:00,
2013-03-14 03:50:00,30.7,16.5,30.20,North,9,7.0,17.0,55,0.00,,---,0.00,VWS V14.01,2013-03-14 07:50:00,
2013-03-14 03:53:00,30.6,16.4,30.20,West,263,9.0,15.0,55,0.00,,---,0.00,VWS V14.01,2013-03-14 07:53:00,
2013-03-14 03:58:00,30.6,15.9,30.20,WNW,299,6.0,16.0,54,0.00,,---,0.00,VWS V14.01,2013-03-14 07:58:00,
2013-03-14 04:00:00,30.6,15.9,30.20,WNW,301,7.0,16.0,54,0.00,,---,0.00,VWS V14.01,2013-03-14 08:00:00,
2013-03-14 04:03:00,30.5,15.9,30.19,North,350,5.0,12.0,54,0.00,,---,0.00,VWS V14.01,2013-03-14 08:03:00,
2013-03-14 04:08:00,30.5,15.0,30.20,NNE,13,7.0,20.0,52,0.00,,---,0.00,VWS V14.01,2013-03-14 08:08:00,
2013-03-14 04:10:00,30.5,15.0,30.20,NNW,329,13.0,20.0,52,0.00,,---,0.00,VWS V14.01,2013-03-14 08:10:00,
2013-03-14 04:13:00,30.5,15.0,30.20,WNW,298,5.0,19.0,52,0.00,,---,0.00,VWS V14.01,2013-03-14 08:13:00,
2013-03-14 04:18:00,30.4,14.9,30.20,WNW,291,11.0,19.0,52,0.00,,---,0.00,VWS V14.01,2013-03-14 08:18:00,
2013-03-14 04:20:00,30.3,15.2,30.20,WNW,290,5.0,19.0,53,0.00,,---,0.00,VWS V14.01,2013-03-14 08:20:00,
2013-03-14 04:24:00,30.4,14.4,30.20,WNW,294,9.0,13.0,51,0.00,,---,0.00,VWS V14.01,2013-03-14 08:24:00,
2013-03-14 04:29:00,30.5,14.5,30.20,NW,306,4.0,14.0,51,0.00,,---,0.00,VWS V14.01,2013-03-14 08:29:00,
2013-03-14 04:30:00,30.5,14.5,30.20,WNW,297,3.0,14.0,51,0.00,,---,0.00,VWS V14.01,2013-03-14 08:30:00,
2013-03-14 04:34:00,30.5,14.1,30.20,West,274,12.0,18.0,50,0.00,,---,0.00,VWS V14.01,2013-03-14 08:34:00,
2013-03-14 04:39:00,30.5,14.1,30.20,NW,305,7.0,18.0,50,0.00,,---,0.00,VWS V14.01,2013-03-14 08:39:00,
2013-03-14 04:40:00,30.5,14.1,30.20,West,279,6.0,18.0,50,0.00,,---,0.00,VWS V14.01,2013-03-14 08:40:00,
2013-03-14 04:44:00,30.5,14.1,30.20,NW,304,11.0,11.0,50,0.00,,---,0.00,VWS V14.01,2013-03-14 08:44:00,
2013-03-14 04:49:00,30.4,14.0,30.20,WNW,300,10.0,14.0,50,0.00,,---,0.00,VWS V14.01,2013-03-14 08:49:00,
2013-03-14 04:50:00,30.4,14.0,30.20,West,268,7.0,14.0,50,0.00,,---,0.00,VWS V14.01,2013-03-14 08:50:00,
2013-03-14 04:54:00,30.3,13.9,30.20,WNW,290,4.0,12.0,50,0.00,,---,0.00,VWS V14.01,2013-03-14 08:54:00,
2013-03-14 04:59:00,30.2,13.8,30.20,West,270,4.0,12.0,50,0.00,,---,0.00,VWS V14.01,2013-03-14 08:59:00,
2013-03-14 05:00:00,30.2,13.8,30.20,West,270,4.0,12.0,50,0.00,,---,0.00,VWS V14.01,2013-03-14 09:00:00,
2013-03-14 05:04:00,30.1,13.3,30.19,NNW,327,6.0,12.0,49,0.00,,---,0.00,VWS V14.01,2013-03-14 09:04:00,
2013-03-14 05:10:00,30.1,13.7,30.20,North,355,10.0,10.0,50,0.00,,---,0.00,VWS V14.01,2013-03-14 09:10:00,
2013-03-14 05:15:00,30.1,13.7,30.20,SW,229,5.0,10.0,50,0.00,,---,0.00,VWS V14.01,2013-03-14 09:15:00,
2013-03-14 05:20:00,29.8,13.9,30.19,West,261,5.0,11.0,51,0.00,,---,0.00,VWS V14.01,2013-03-14 09:20:00,
2013-03-14 05:25:00,29.8,13.9,30.19,West,267,3.0,11.0,51,0.00,,---,0.00,VWS V14.01,2013-03-14 09:25:00,
2013-03-14 05:30:00,29.8,13.9,30.20,NNW,347,4.0,7.0,51,0.00,,---,0.00,VWS V14.01,2013-03-14 09:30:00,
2013-03-14 05:36:00,29.9,13.5,30.20,North,349,5.0,10.0,50,0.00,,---,0.00,VWS V14.01,2013-03-14 09:36:00,
2013-03-14 05:40:00,29.9,14.0,30.20,WSW,242,1.0,10.0,51,0.00,,---,0.00,VWS V14.01,2013-03-14 09:40:00,
2013-03-14 05:41:00,29.8,13.9,30.20,SW,216,4.0,4.0,51,0.00,,---,0.00,VWS V14.01,2013-03-14 09:41:00,
2013-03-14 05:46:00,29.8,13.9,30.20,West,268,10.0,14.0,51,0.00,,---,0.00,VWS V14.01,2013-03-14 09:46:00,
2013-03-14 05:50:00,29.9,14.0,30.20,WNW,286,6.0,14.0,51,0.00,,---,0.00,VWS V14.01,2013-03-14 09:50:00,
2013-03-14 05:51:00,29.9,14.0,30.20,WNW,290,6.0,8.0,51,0.00,,---,0.00,VWS V14.01,2013-03-14 09:51:00,
2013-03-14 05:57:00,30.0,14.1,30.21,West,265,7.0,14.0,51,0.00,,---,0.00,VWS V14.01,2013-03-14 09:57:00,
2013-03-14 06:00:00,29.9,14.4,30.21,West,269,8.0,14.0,52,0.00,,---,0.00,VWS V14.01,2013-03-14 10:00:00,
2013-03-14 06:02:00,30.0,14.5,30.21,NW,304,9.0,10.0,52,0.00,,---,0.00,VWS V14.01,2013-03-14 10:02:00,
2013-03-14 06:07:00,29.9,14.4,30.22,West,264,4.0,10.0,52,0.00,,---,0.00,VWS V14.01,2013-03-14 10:07:00,
2013-03-14 06:10:00,29.9,14.9,30.21,West,265,8.0,10.0,53,0.00,,---,0.00,VWS V14.01,2013-03-14 10:10:00,
2013-03-14 06:12:00,29.9,14.9,30.21,West,263,6.0,16.0,53,0.00,,---,0.00,VWS V14.01,2013-03-14 10:12:00,
2013-03-14 06:17:00,29.8,14.8,30.22,West,273,6.0,16.0,53,0.00,,---,0.00,VWS V14.01,2013-03-14 10:17:00,
2013-03-14 06:20:00,29.8,15.2,30.22,West,266,10.0,16.0,54,0.00,,---,0.00,VWS V14.01,2013-03-14 10:20:00,
2013-03-14 06:23:00,29.7,15.1,30.22,WNW,284,4.0,10.0,54,0.00,,---,0.00,VWS V14.01,2013-03-14 10:23:00,
2013-03-14 06:28:00,29.6,15.4,30.22,WNW,302,5.0,11.0,55,0.00,,---,0.00,VWS V14.01,2013-03-14 10:28:00,
2013-03-14 06:30:00,29.6,15.0,30.22,WSW,255,8.0,11.0,54,0.00,,---,0.00,VWS V14.01,2013-03-14 10:30:00,
2013-03-14 06:33:00,29.6,15.4,30.22,WSW,251,10.0,13.0,55,0.00,,---,0.00,VWS V14.01,2013-03-14 10:33:00,
2013-03-14 06:38:00,29.7,15.5,30.23,West,279,1.0,13.0,55,0.00,,---,0.00,VWS V14.01,2013-03-14 10:38:00,
2013-03-14 06:40:00,29.6,15.4,30.23,WNW,286,1.0,13.0,55,0.00,,---,0.00,VWS V14.01,2013-03-14 10:40:00,
2013-03-14 06:44:00,29.5,15.3,30.22,North,355,6.0,8.0,55,0.00,,---,0.00,VWS V14.01,2013-03-14 10:44:00,
2013-03-14 06:49:00,29.4,15.7,30.23,SW,223,5.0,8.0,56,0.00,,---,0.00,VWS V14.01,2013-03-14 10:49:00,
2013-03-14 06:50:00,29.4,15.7,30.23,SW,233,4.0,8.0,56,0.00,,---,0.00,VWS V14.01,2013-03-14 10:50:00,
2013-03-14 06:54:00,29.3,15.6,30.23,SW,216,4.0,7.0,56,0.00,,---,0.00,VWS V14.01,2013-03-14 10:54:00,
2013-03-14 06:59:00,29.2,15.5,30.23,West,266,14.0,14.0,56,0.00,,---,0.00,VWS V14.01,2013-03-14 10:59:00,
2013-03-14 07:00:00,29.2,15.5,30.23,NW,316,7.0,14.0,56,0.00,,---,0.00,VWS V14.01,2013-03-14 11:00:00,
2013-03-14 07:04:00,29.4,15.2,30.23,WNW,296,3.0,11.0,55,0.00,,---,0.00,VWS V14.01,2013-03-14 11:04:00,
2013-03-14 07:09:00,29.5,15.3,30.23,WNW,298,5.0,12.0,55,0.00,,---,0.00,VWS V14.01,2013-03-14 11:09:00,
2013-03-14 07:10:00,29.5,15.3,30.23,WSW,250,3.0,12.0,55,0.00,,---,0.00,VWS V14.01,2013-03-14 11:10:00,
2013-03-14 07:14:00,29.4,15.7,30.23,NW,311,0.0,8.0,56,0.00,,---,0.00,VWS V14.01,2013-03-14 11:14:00,
2013-03-14 07:19:00,29.4,15.2,30.23,WSW,252,9.0,9.0,55,0.00,,---,0.00,VWS V14.01,2013-03-14 11:19:00,
2013-03-14 07:20:00,29.4,15.2,30.23,WSW,252,9.0,9.0,55,0.00,,---,0.00,VWS V14.01,2013-03-14 11:20:00,
2013-03-14 07:25:00,29.4,15.2,30.24,WNW,284,1.0,9.0,55,0.00,,---,0.00,VWS V14.01,2013-03-14 11:25:00,
2013-03-14 07:30:00,29.3,15.6,30.24,West,279,7.0,7.0,56,0.00,,---,0.00,VWS V14.01,2013-03-14 11:30:00,
2013-03-14 07:35:00,29.4,16.1,30.24,WNW,302,1.0,9.0,57,0.00,,---,0.00,VWS V14.01,2013-03-14 11:35:00,
2013-03-14 07:40:00,29.4,16.1,30.24,WNW,299,2.0,4.0,57,0.00,,---,0.00,VWS V14.01,2013-03-14 11:40:00,
2013-03-14 07:45:00,29.4,16.1,30.24,West,263,7.0,15.0,57,0.00,,---,0.00,VWS V14.01,2013-03-14 11:45:00,
2013-03-14 07:50:00,29.4,16.1,30.24,NW,307,7.0,10.0,57,0.00,,---,0.00,VWS V14.01,2013-03-14 11:50:00,
2013-03-14 07:56:00,29.4,16.5,30.24,NW,325,5.0,10.0,58,0.00,,---,0.00,VWS V14.01,2013-03-14 11:56:00,
2013-03-14 08:00:00,29.4,16.5,30.25,SW,225,4.0,10.0,58,0.00,,---,0.00,VWS V14.01,2013-03-14 12:00:00,
2013-03-14 08:01:00,29.4,16.5,30.25,WSW,248,9.0,9.0,58,0.00,,---,0.00,VWS V14.01,2013-03-14 12:01:00,
2013-03-14 08:06:00,29.6,15.8,30.25,WNW,301,3.0,18.0,56,0.00,,---,0.00,VWS V14.01,2013-03-14 12:06:00,
2013-03-14 08:10:00,29.6,15.9,30.25,West,279,2.0,18.0,56,0.00,,---,0.00,VWS V14.01,2013-03-14 12:10:00,
2013-03-14 08:12:00,29.7,15.9,30.25,NW,309,5.0,6.0,56,0.00,,---,0.00,VWS V14.01,2013-03-14 12:12:00,
2013-03-14 08:17:00,29.8,15.2,30.25,WSW,256,3.0,8.0,54,0.00,,---,0.00,VWS V14.01,2013-03-14 12:17:00,
2013-03-14 08:20:00,29.9,15.7,30.25,WSW,249,1.0,8.0,55,0.00,,---,0.00,VWS V14.01,2013-03-14 12:20:00,
2013-03-14 08:22:00,30.0,15.4,30.25,NNE,17,2.0,5.0,54,0.00,,---,0.00,VWS V14.01,2013-03-14 12:22:00,
2013-03-14 08:27:00,30.3,14.8,30.25,NNE,16,4.0,6.0,52,0.00,,---,0.00,VWS V14.01,2013-03-14 12:27:00,
2013-03-14 08:30:00,30.4,15.3,30.25,WNW,289,10.0,13.0,53,0.00,,---,0.00,VWS V14.01,2013-03-14 12:30:00,
2013-03-14 08:33:00,30.3,14.8,30.25,NNW,330,3.0,14.0,52,0.00,,---,0.00,VWS V14.01,2013-03-14 12:33:00,
2013-03-14 08:38:00,30.4,14.9,30.25,WNW,295,2.0,14.0,52,0.00,,---,0.00,VWS V14.01,2013-03-14 12:38:00,
2013-03-14 08:40:00,30.5,15.4,30.25,WSW,250,3.0,14.0,53,0.00,,---,0.00,VWS V14.01,2013-03-14 12:40:00,
2013-03-14 08:43:00,30.7,14.7,30.25,West,271,12.0,12.0,51,0.00,,---,0.00,VWS V14.01,2013-03-14 12:43:00,
2013-03-14 08:48:00,30.6,15.1,30.25,NW,317,8.0,12.0,52,0.00,,---,0.00,VWS V14.01,2013-03-14 12:48:00,
2013-03-14 08:50:00,30.6,15.1,30.25,WNW,299,9.0,12.0,52,0.00,,---,0.00,VWS V14.01,2013-03-14 12:50:00,
2013-03-14 08:53:00,30.6,15.1,30.25,WNW,302,4.0,19.0,52,0.00,,---,0.00,VWS V14.01,2013-03-14 12:53:00,
2013-03-14 08:58:00,30.8,15.3,30.25,West,269,4.0,19.0,52,0.00,,---,0.00,VWS V14.01,2013-03-14 12:58:00,
2013-03-14 09:00:00,30.8,15.3,30.25,WNW,296,7.0,19.0,52,0.00,,---,0.00,VWS V14.01,2013-03-14 13:00:00,
2013-03-14 09:03:00,31.0,15.0,30.25,NW,313,4.0,12.0,51,0.00,,---,0.00,VWS V14.01,2013-03-14 13:03:00,
2013-03-14 09:09:00,31.4,15.4,30.26,West,270,9.0,13.0,51,0.00,,---,0.00,VWS V14.01,2013-03-14 13:09:00,
2013-03-14 09:10:00,31.4,15.4,30.26,NNW,344,6.0,13.0,51,0.00,,---,0.00,VWS V14.01,2013-03-14 13:10:00,
2013-03-14 09:14:00,31.6,15.6,30.26,North,351,8.0,11.0,51,0.00,,---,0.00,VWS V14.01,2013-03-14 13:14:00,
2013-03-14 09:19:00,31.6,15.6,30.26,NW,316,10.0,15.0,51,0.00,,---,0.00,VWS V14.01,2013-03-14 13:19:00,
2013-03-14 09:20:00,31.6,15.6,30.26,WSW,255,14.0,15.0,51,0.00,,---,0.00,VWS V14.01,2013-03-14 13:20:00,
2013-03-14 09:24:00,31.8,16.2,30.26,SSW,194,1.0,16.0,52,0.00,,---,0.00,VWS V14.01,2013-03-14 13:24:00,
2013-03-14 09:29:00,32.4,16.3,30.27,WNW,283,6.0,16.0,51,0.00,,---,0.00,VWS V14.01,2013-03-14 13:29:00,
2013-03-14 09:30:00,32.4,16.3,30.27,WSW,244,9.0,16.0,51,0.00,,---,0.00,VWS V14.01,2013-03-14 13:30:00,
2013-03-14 09:34:00,32.3,15.8,30.27,West,267,3.0,14.0,50,0.00,,---,0.00,VWS V14.01,2013-03-14 13:34:00,
2013-03-14 09:39:00,32.5,15.9,30.27,West,269,8.0,14.0,50,0.00,,---,0.00,VWS V14.01,2013-03-14 13:39:00,
2013-03-14 09:40:00,32.5,15.9,30.27,West,269,8.0,14.0,50,0.00,,---,0.00,VWS V14.01,2013-03-14 13:40:00,
2013-03-14 09:45:00,32.8,15.8,30.27,ENE,58,5.0,13.0,49,0.00,,---,0.00,VWS V14.01,2013-03-14 13:45:00,
2013-03-14 09:50:00,33.1,15.6,30.27,NNW,338,5.0,8.0,48,0.00,,---,0.00,VWS V14.01,2013-03-14 13:50:00,
2013-03-14 09:55:00,33.3,15.7,30.28,WNW,294,3.0,9.0,48,0.00,,---,0.00,VWS V14.01,2013-03-14 13:55:00,
2013-03-14 10:00:00,33.5,14.9,30.28,NNW,340,2.0,7.0,46,0.00,,---,0.00,VWS V14.01,2013-03-14 14:00:00,
2013-03-14 10:05:00,34.2,16.1,30.28,WNW,298,3.0,7.0,47,0.00,,---,0.00,VWS V14.01,2013-03-14 14:05:00,
2013-03-14 10:10:00,34.5,15.9,30.28,WNW,297,2.0,7.0,46,0.00,,---,0.00,VWS V14.01,2013-03-14 14:10:00,
2013-03-14 10:11:00,34.6,16.5,30.28,WSW,250,3.0,5.0,47,0.00,,---,0.00,VWS V14.01,2013-03-14 14:11:00,
2013-03-14 10:16:00,34.7,15.6,30.29,WNW,303,6.0,9.0,45,0.00,,---,0.00,VWS V14.01,2013-03-14 14:16:00,
2013-03-14 10:20:00,34.5,14.3,30.29,WNW,300,5.0,23.0,43,0.00,,---,0.00,VWS V14.01,2013-03-14 14:20:00,
2013-03-14 10:21:00,34.5,14.3,30.29,WNW,282,13.0,14.0,43,0.00,,---,0.00,VWS V14.01,2013-03-14 14:21:00,
2013-03-14 10:26:00,34.2,13.5,30.29,WNW,294,16.0,21.0,42,0.00,,---,0.00,VWS V14.01,2013-03-14 14:26:00,
2013-03-14 10:30:00,34.4,14.8,30.28,North,360,10.0,21.0,44,0.00,,---,0.00,VWS V14.01,2013-03-14 14:30:00,
2013-03-14 10:32:00,35.0,15.8,30.28,North,355,6.0,13.0,45,0.00,,---,0.00,VWS V14.01,2013-03-14 14:32:00,
2013-03-14 10:37:00,35.9,15.6,30.28,NW,324,9.0,16.0,43,0.00,,---,0.00,VWS V14.01,2013-03-14 14:37:00,
2013-03-14 10:40:00,36.0,15.7,30.28,NW,325,11.0,16.0,43,0.00,,---,0.00,VWS V14.01,2013-03-14 14:40:00,
2013-03-14 10:42:00,36.2,15.3,30.28,NNW,339,6.0,13.0,42,0.00,,---,0.00,VWS V14.01,2013-03-14 14:42:00,
2013-03-14 10:47:00,36.3,15.4,30.28,WNW,302,11.0,13.0,42,0.00,,---,0.00,VWS V14.01,2013-03-14 14:47:00,
2013-03-14 10:50:00,36.5,15.6,30.28,NNE,28,7.0,13.0,42,0.00,,---,0.00,VWS V14.01,2013-03-14 14:50:00,
2013-03-14 10:53:00,36.6,15.1,30.28,NW,323,10.0,12.0,41,0.00,,---,0.00,VWS V14.01,2013-03-14 14:53:00,
2013-03-14 10:58:00,37.2,15.7,30.28,NNW,333,13.0,13.0,41,0.00,,---,0.00,VWS V14.01,2013-03-14 14:58:00,
2013-03-14 11:00:00,37.3,15.2,30.28,NW,316,4.0,13.0,40,0.00,,---,0.00,VWS V14.01,2013-03-14 15:00:00,
2013-03-14 11:03:00,37.4,16.4,30.27,North,5,3.0,10.0,42,0.00,,---,0.00,VWS V14.01,2013-03-14 15:03:00,
2013-03-14 11:08:00,37.0,15.5,30.27,WNW,282,10.0,11.0,41,0.00,,---,0.00,VWS V14.01,2013-03-14 15:08:00,
2013-03-14 11:10:00,36.8,15.3,30.27,WNW,303,8.0,11.0,41,0.00,,---,0.00,VWS V14.01,2013-03-14 15:10:00,
2013-03-14 11:13:00,36.6,15.7,30.27,NNW,331,6.0,12.0,42,0.00,,---,0.00,VWS V14.01,2013-03-14 15:13:00,
2013-03-14 11:18:00,37.0,16.6,30.27,NW,316,3.0,12.0,43,0.00,,---,0.00,VWS V14.01,2013-03-14 15:18:00,
2013-03-14 11:20:00,37.1,16.7,30.27,NNE,14,3.0,12.0,43,0.00,,---,0.00,VWS V14.01,2013-03-14 15:20:00,
2013-03-14 11:23:00,37.9,16.9,30.27,West,263,11.0,12.0,42,0.00,,---,0.00,VWS V14.01,2013-03-14 15:23:00,
2013-03-14 11:29:00,37.5,15.4,30.27,WNW,284,8.0,12.0,40,0.00,,---,0.00,VWS V14.01,2013-03-14 15:29:00,
2013-03-14 11:30:00,37.3,15.2,30.27,WNW,302,6.0,12.0,40,0.00,,---,0.00,VWS V14.01,2013-03-14 15:30:00,
2013-03-14 11:34:00,37.6,16.0,30.27,West,261,9.0,9.0,41,0.00,,---,0.00,VWS V14.01,2013-03-14 15:34:00,
2013-03-14 11:39:00,37.8,15.1,30.27,West,263,8.0,12.0,39,0.00,,---,0.00,VWS V14.01,2013-03-14 15:39:00,
2013-03-14 11:40:00,37.7,15.0,30.27,West,260,8.0,12.0,39,0.00,,---,0.00,VWS V14.01,2013-03-14 15:40:00,
2013-03-14 11:44:00,37.5,14.8,30.27,NW,312,7.0,12.0,39,0.00,,---,0.00,VWS V14.01,2013-03-14 15:44:00,
2013-03-14 11:49:00,38.5,16.9,30.26,West,269,6.0,12.0,41,0.00,,---,0.00,VWS V14.01,2013-03-14 15:49:00,
2013-03-14 11:50:00,38.5,16.9,30.26,West,269,6.0,12.0,41,0.00,,---,0.00,VWS V14.01,2013-03-14 15:50:00,
2013-03-14 11:55:00,39.3,15.8,30.27,NW,309,5.0,13.0,38,0.00,,---,0.00,VWS V14.01,2013-03-14 15:55:00,
2013-03-14 12:00:00,39.4,15.3,30.26,NW,311,7.0,10.0,37,0.00,,---,0.00,VWS V14.01,2013-03-14 16:00:00,
2013-03-14 12:05:00,40.0,17.6,30.26,West,280,8.0,12.0,40,0.00,,---,0.00,VWS V14.01,2013-03-14 16:05:00,
2013-03-14 12:10:00,39.5,16.6,30.26,West,269,8.0,12.0,39,0.00,,---,0.00,VWS V14.01,2013-03-14 16:10:00,
2013-03-14 12:16:00,39.8,17.5,30.26,WSW,242,7.0,12.0,40,0.00,,---,0.00,VWS V14.01,2013-03-14 16:16:00,
2013-03-14 12:20:00,39.9,17.0,30.26,West,275,5.0,12.0,39,0.00,,---,0.00,VWS V14.01,2013-03-14 16:20:00,
2013-03-14 12:21:00,39.9,16.4,30.26,WNW,282,9.0,9.0,38,0.00,,---,0.00,VWS V14.01,2013-03-14 16:21:00,
2013-03-14 12:26:00,39.9,15.8,30.26,West,262,5.0,12.0,37,0.00,,---,0.00,VWS V14.01,2013-03-14 16:26:00,
2013-03-14 12:30:00,40.5,15.7,30.26,West,268,7.0,12.0,36,0.00,,---,0.00,VWS V14.01,2013-03-14 16:30:00,
2013-03-14 12:31:00,40.4,15.6,30.26,WNW,295,10.0,10.0,36,0.00,,---,0.00,VWS V14.01,2013-03-14 16:31:00,
2013-03-14 12:37:00,40.4,16.2,30.25,WSW,246,5.0,13.0,37,0.00,,---,0.00,VWS V14.01,2013-03-14 16:37:00,
2013-03-14 12:40:00,40.4,15.6,30.26,NW,325,5.0,13.0,36,0.00,,---,0.00,VWS V14.01,2013-03-14 16:40:00,
2013-03-14 12:42:00,40.5,16.3,30.25,SW,232,6.0,9.0,37,0.00,,---,0.00,VWS V14.01,2013-03-14 16:42:00,
2013-03-14 12:47:00,41.0,17.4,30.25,SW,224,8.0,13.0,38,0.00,,---,0.00,VWS V14.01,2013-03-14 16:47:00,
2013-03-14 12:50:00,41.2,18.1,30.25,West,275,8.0,13.0,39,0.00,,---,0.00,VWS V14.01,2013-03-14 16:50:00,
2013-03-14 12:52:00,41.5,16.5,30.25,NNE,13,6.0,8.0,36,0.00,,---,0.00,VWS V14.01,2013-03-14 16:52:00,
2013-03-14 12:57:00,42.4,16.0,30.25,NW,319,5.0,11.0,34,0.00,,---,0.00,VWS V14.01,2013-03-14 16:57:00,
2013-03-14 13:00:00,42.4,16.7,30.25,West,270,10.0,11.0,35,0.00,,---,0.00,VWS V14.01,2013-03-14 17:00:00,
2013-03-14 13:02:00,42.3,17.9,30.25,West,265,10.0,13.0,37,0.00,,---,0.00,VWS V14.01,2013-03-14 17:02:00,
2013-03-14 13:07:00,41.6,14.6,30.25,WNW,288,3.0,13.0,33,0.00,,---,0.00,VWS V14.01,2013-03-14 17:07:00,
2013-03-14 13:10:00,41.6,15.3,30.25,NNW,339,7.0,13.0,34,0.00,,---,0.00,VWS V14.01,2013-03-14 17:10:00,
2013-03-14 13:13:00,41.9,14.9,30.25,NNW,331,6.0,10.0,33,0.00,,---,0.00,VWS V14.01,2013-03-14 17:13:00,
2013-03-14 13:18:00,42.5,16.1,30.25,WNW,291,7.0,11.0,34,0.00,,---,0.00,VWS V14.01,2013-03-14 17:18:00,
2013-03-14 13:20:00,42.7,16.3,30.25,WNW,287,8.0,15.0,34,0.00,,---,0.00,VWS V14.01,2013-03-14 17:20:00,
2013-03-14 13:23:00,42.4,14.6,30.25,NW,306,7.0,15.0,32,0.00,,---,0.00,VWS V14.01,2013-03-14 17:23:00,
2013-03-14 13:28:00,42.6,16.2,30.25,NNW,333,8.0,15.0,34,0.00,,---,0.00,VWS V14.01,2013-03-14 17:28:00,
2013-03-14 13:30:00,43.0,15.9,30.25,NW,319,9.0,15.0,33,0.00,,---,0.00,VWS V14.01,2013-03-14 17:30:00,
2013-03-14 13:33:00,43.6,15.7,30.25,NW,314,14.0,14.0,32,0.00,,---,0.00,VWS V14.01,2013-03-14 17:33:00,
2013-03-14 13:39:00,43.7,16.5,30.24,WNW,298,5.0,14.0,33,0.00,,---,0.00,VWS V14.01,2013-03-14 17:39:00,
2013-03-14 13:40:00,43.7,15.8,30.24,NW,313,4.0,14.0,32,0.00,,---,0.00,VWS V14.01,2013-03-14 17:40:00,
2013-03-14 13:44:00,44.1,15.4,30.24,West,269,5.0,11.0,31,0.00,,---,0.00,VWS V14.01,2013-03-14 17:44:00,
2013-03-14 13:49:00,44.1,15.4,30.24,West,281,6.0,11.0,31,0.00,,---,0.00,VWS V14.01,2013-03-14 17:49:00,
2013-03-14 13:50:00,44.0,15.3,30.24,WNW,288,6.0,11.0,31,0.00,,---,0.00,VWS V14.01,2013-03-14 17:50:00,
2013-03-14 13:54:00,44.7,17.4,30.24,WNW,292,6.0,10.0,33,0.00,,---,0.00,VWS V14.01,2013-03-14 17:54:00,
2013-03-14 13:59:00,44.5,15.8,30.24,WNW,297,6.0,15.0,31,0.00,,---,0.00,VWS V14.01,2013-03-14 17:59:00,
2013-03-14 14:00:00,44.5,15.8,30.24,NW,313,6.0,15.0,31,0.00,,---,0.00,VWS V14.01,2013-03-14 18:00:00,
2013-03-14 14:05:00,44.9,15.4,30.24,NW,308,7.0,14.0,30,0.00,,---,0.00,VWS V14.01,2013-03-14 18:05:00,
2013-03-14 14:10:00,44.6,16.6,30.24,WNW,299,9.0,11.0,32,0.00,,---,0.00,VWS V14.01,2013-03-14 18:10:00,
2013-03-14 14:15:00,45.1,16.3,30.23,NW,317,9.0,12.0,31,0.00,,---,0.00,VWS V14.01,2013-03-14 18:15:00,
2013-03-14 14:20:00,45.7,16.8,30.23,SW,225,5.0,9.0,31,0.00,,---,0.00,VWS V14.01,2013-03-14 18:20:00,
2013-03-14 14:25:00,45.4,15.8,30.23,WNW,294,13.0,16.0,30,0.00,,---,0.00,VWS V14.01,2013-03-14 18:25:00,
2013-03-14 14:30:00,45.8,17.6,30.23,WNW,295,7.0,10.0,32,0.00,,---,0.00,VWS V14.01,2013-03-14 18:30:00,
2013-03-14 14:35:00,46.0,16.3,30.22,WSW,254,7.0,16.0,30,0.00,,---,0.00,VWS V14.01,2013-03-14 18:35:00,
2013-03-14 14:40:00,45.6,14.4,30.22,West,278,10.0,14.0,28,0.00,,---,0.00,VWS V14.01,2013-03-14 18:40:00,
2013-03-14 14:46:00,45.7,16.1,30.22,NNW,339,4.0,14.0,30,0.00,,---,0.00,VWS V14.01,2013-03-14 18:46:00,
2013-03-14 14:50:00,46.5,16.8,30.22,NNW,331,12.0,14.0,30,0.00,,---,0.00,VWS V14.01,2013-03-14 18:50:00,
2013-03-14 14:51:00,46.7,16.1,30.22,NW,309,7.0,14.0,29,0.00,,---,0.00,VWS V14.01,2013-03-14 18:51:00,
2013-03-14 14:56:00,47.7,17.8,30.21,NNW,333,7.0,15.0,30,0.00,,---,0.00,VWS V14.01,2013-03-14 18:56:00,
2013-03-14 15:00:00,48.1,17.4,30.21,NNW,339,13.0,15.0,29,0.00,,---,0.00,VWS V14.01,2013-03-14 19:00:00,
2013-03-14 15:02:00,48.1,16.5,30.21,NW,313,10.0,13.0,28,0.00,,---,0.00,VWS V14.01,2013-03-14 19:02:00,
2013-03-14 15:07:00,47.8,17.1,30.21,NW,319,7.0,13.0,29,0.00,,---,0.00,VWS V14.01,2013-03-14 19:07:00,
2013-03-14 15:10:00,47.7,17.0,30.21,North,5,5.0,13.0,29,0.00,,---,0.00,VWS V14.01,2013-03-14 19:10:00,
2013-03-14 15:12:00,47.6,17.7,30.21,NW,308,10.0,10.0,30,0.00,,---,0.00,VWS V14.01,2013-03-14 19:12:00,
2013-03-14 15:17:00,47.0,18.7,30.21,NW,309,5.0,13.0,32,0.00,,---,0.00,VWS V14.01,2013-03-14 19:17:00,
2013-03-14 15:20:00,47.2,17.4,30.21,WSW,252,7.0,13.0,30,0.00,,---,0.00,VWS V14.01,2013-03-14 19:20:00,
2013-03-14 15:22:00,47.1,16.5,30.20,WSW,242,4.0,8.0,29,0.00,,---,0.00,VWS V14.01,2013-03-14 19:22:00,
2013-03-14 15:27:00,46.8,16.2,30.20,WNW,300,4.0,9.0,29,0.00,,---,0.00,VWS V14.01,2013-03-14 19:27:00,
2013-03-14 15:30:00,46.8,17.0,30.20,WSW,254,5.0,9.0,30,0.00,,---,0.00,VWS V14.01,2013-03-14 19:30:00,
2013-03-14 15:33:00,46.9,17.1,30.20,West,273,8.0,9.0,30,0.00,,---,0.00,VWS V14.01,2013-03-14 19:33:00,
2013-03-14 15:38:00,47.4,17.5,30.20,NW,311,9.0,14.0,30,0.00,,---,0.00,VWS V14.01,2013-03-14 19:38:00,
2013-03-14 15:40:00,47.6,16.9,30.19,WNW,292,2.0,14.0,29,0.00,,---,0.00,VWS V14.01,2013-03-14 19:40:00,
2013-03-14 15:43:00,47.4,15.9,30.19,SE,132,3.0,11.0,28,0.00,,---,0.00,VWS V14.01,2013-03-14 19:43:00,
2013-03-14 15:48:00,47.6,17.7,30.19,SSW,198,5.0,12.0,30,0.00,,---,0.00,VWS V14.01,2013-03-14 19:48:00,
2013-03-14 15:50:00,47.6,16.1,30.19,SSW,202,4.0,12.0,28,0.00,,---,0.00,VWS V14.01,2013-03-14 19:50:00,
2013-03-14 15:53:00,48.0,16.5,30.19,WSW,243,9.0,12.0,28,0.00,,---,0.00,VWS V14.01,2013-03-14 19:53:00,
2013-03-14 15:58:00,48.0,16.5,30.19,NNW,348,8.0,12.0,28,0.00,,---,0.00,VWS V14.01,2013-03-14 19:58:00,
2013-03-14 16:00:00,48.2,16.6,30.19,NW,305,3.0,12.0,28,0.00,,---,0.00,VWS V14.01,2013-03-14 20:00:00,
2013-03-14 16:03:00,48.5,16.9,30.19,NW,309,8.0,12.0,28,0.00,,---,0.00,VWS V14.01,2013-03-14 20:03:00,
2013-03-14 16:08:00,48.0,16.5,30.19,SW,226,4.0,12.0,28,0.00,,---,0.00,VWS V14.01,2013-03-14 20:08:00,
2013-03-14 16:10:00,48.0,18.1,30.19,West,280,9.0,12.0,30,0.00,,---,0.00,VWS V14.01,2013-03-14 20:10:00,
2013-03-14 16:14:00,47.9,16.4,30.19,NW,309,6.0,15.0,28,0.00,,---,0.00,VWS V14.01,2013-03-14 20:14:00,
2013-03-14 16:19:00,48.4,16.8,30.18,NW,315,3.0,15.0,28,0.00,,---,0.00,VWS V14.01,2013-03-14 20:19:00,
2013-03-14 16:20:00,48.5,16.9,30.18,WNW,300,1.0,15.0,28,0.00,,---,0.00,VWS V14.01,2013-03-14 20:20:00,
2013-03-14 16:24:00,48.9,16.4,30.18,NW,305,11.0,12.0,27,0.00,,---,0.00,VWS V14.01,2013-03-14 20:24:00,
2013-03-14 16:29:00,48.3,16.7,30.18,West,271,13.0,13.0,28,0.00,,---,0.00,VWS V14.01,2013-03-14 20:29:00,
2013-03-14 16:30:00,48.3,16.7,30.18,West,271,13.0,13.0,28,0.00,,---,0.00,VWS V14.01,2013-03-14 20:30:00,
2013-03-14 16:34:00,48.0,18.1,30.18,WNW,298,2.0,13.0,30,0.00,,---,0.00,VWS V14.01,2013-03-14 20:34:00,
2013-03-14 16:40:00,48.6,17.8,30.18,West,277,2.0,5.0,29,0.00,,---,0.00,VWS V14.01,2013-03-14 20:40:00,
2013-03-14 16:45:00,48.6,17.0,30.18,WSW,248,7.0,13.0,28,0.00,,---,0.00,VWS V14.01,2013-03-14 20:45:00,
2013-03-14 16:50:00,48.2,17.5,30.17,NNW,329,5.0,5.0,29,0.00,,---,0.00,VWS V14.01,2013-03-14 20:50:00,
2013-03-14 16:55:00,48.2,18.2,30.18,WSW,243,4.0,10.0,30,0.00,,---,0.00,VWS V14.01,2013-03-14 20:55:00,
2013-03-14 17:00:00,48.1,16.5,30.18,NW,314,10.0,10.0,28,0.00,,---,0.00,VWS V14.01,2013-03-14 21:00:00,
2013-03-14 17:06:00,48.0,18.1,30.18,West,272,4.0,10.0,30,0.00,,---,0.00,VWS V14.01,2013-03-14 21:06:00,
2013-03-14 17:10:00,48.3,18.3,30.18,West,261,5.0,11.0,30,0.00,,---,0.00,VWS V14.01,2013-03-14 21:10:00,
2013-03-14 17:11:00,48.1,15.7,30.18,WNW,288,6.0,13.0,27,0.00,,---,0.00,VWS V14.01,2013-03-14 21:11:00,
2013-03-14 17:16:00,47.8,16.3,30.18,SW,229,6.0,14.0,28,0.00,,---,0.00,VWS V14.01,2013-03-14 21:16:00,
2013-03-14 17:20:00,47.3,15.9,30.18,WNW,289,11.0,14.0,28,0.00,,---,0.00,VWS V14.01,2013-03-14 21:20:00,
2013-03-14 17:21:00,47.1,15.7,30.18,West,261,4.0,11.0,28,0.00,,---,0.00,VWS V14.01,2013-03-14 21:21:00,
2013-03-14 17:27:00,47.0,16.4,30.18,WNW,288,10.0,11.0,29,0.00,,---,0.00,VWS V14.01,2013-03-14 21:27:00,
2013-03-14 17:30:00,47.2,16.6,30.18,West,276,6.0,11.0,29,0.00,,---,0.00,VWS V14.01,2013-03-14 21:30:00,
2013-03-14 17:32:00,47.2,15.8,30.17,NW,315,11.0,12.0,28,0.00,,---,0.00,VWS V14.01,2013-03-14 21:32:00,
2013-03-14 17:37:00,47.4,15.9,30.17,WNW,287,5.0,12.0,28,0.00,,---,0.00,VWS V14.01,2013-03-14 21:37:00,
2013-03-14 17:40:00,47.2,15.8,30.17,West,271,6.0,15.0,28,0.00,,---,0.00,VWS V14.01,2013-03-14 21:40:00,
2013-03-14 17:42:00,47.2,15.8,30.17,WSW,246,10.0,12.0,28,0.00,,---,0.00,VWS V14.01,2013-03-14 21:42:00,
2013-03-14 17:47:00,47.1,16.5,30.17,West,265,8.0,13.0,29,0.00,,---,0.00,VWS V14.01,2013-03-14 21:47:00,
2013-03-14 17:50:00,46.9,15.5,30.17,West,265,7.0,13.0,28,0.00,,---,0.00,VWS V14.01,2013-03-14 21:50:00,
2013-03-14 17:52:00,47.0,16.4,30.17,WNW,286,5.0,11.0,29,0.00,,---,0.00,VWS V14.01,2013-03-14 21:52:00,
2013-03-14 17:57:00,47.2,15.8,30.17,WNW,287,4.0,12.0,28,0.00,,---,0.00,VWS V14.01,2013-03-14 21:57:00,
2013-03-14 18:00:00,47.3,15.9,30.17,WSW,246,11.0,12.0,28,0.00,,---,0.00,VWS V14.01,2013-03-14 22:00:00,
2013-03-14 18:03:00,47.0,15.6,30.17,WNW,283,7.0,16.0,28,0.00,,---,0.00,VWS V14.01,2013-03-14 22:03:00,
2013-03-14 18:08:00,46.9,15.5,30.17,West,270,7.0,16.0,28,0.00,,---,0.00,VWS V14.01,2013-03-14 22:08:00,
2013-03-14 18:10:00,47.0,16.4,30.17,SW,232,6.0,16.0,29,0.00,,---,0.00,VWS V14.01,2013-03-14 22:10:00,
2013-03-14 18:13:00,46.8,16.2,30.17,West,276,10.0,16.0,29,0.00,,---,0.00,VWS V14.01,2013-03-14 22:13:00,
2013-03-14 18:18:00,46.6,16.1,30.17,West,262,9.0,16.0,29,0.00,,---,0.00,VWS V14.01,2013-03-14 22:18:00,
2013-03-14 18:20:00,46.6,16.1,30.17,West,271,10.0,16.0,29,0.00,,---,0.00,VWS V14.01,2013-03-14 22:20:00,
2013-03-14 18:23:00,46.5,16.0,30.17,West,279,5.0,10.0,29,0.00,,---,0.00,VWS V14.01,2013-03-14 22:23:00,
2013-03-14 18:28:00,46.3,15.8,30.17,WSW,254,4.0,10.0,29,0.00,,---,0.00,VWS V14.01,2013-03-14 22:28:00,
2013-03-14 18:30:00,46.3,15.8,30.17,WSW,254,9.0,10.0,29,0.00,,---,0.00,VWS V14.01,2013-03-14 22:30:00,
2013-03-14 18:34:00,46.1,15.6,30.17,West,279,3.0,9.0,29,0.00,,---,0.00,VWS V14.01,2013-03-14 22:34:00,
2013-03-14 18:39:00,46.0,16.3,30.17,WSW,240,8.0,9.0,30,0.00,,---,0.00,VWS V14.01,2013-03-14 22:39:00,
2013-03-14 18:40:00,46.0,16.3,30.17,West,267,8.0,9.0,30,0.00,,---,0.00,VWS V14.01,2013-03-14 22:40:00,
2013-03-14 18:44:00,45.8,16.1,30.17,WNW,286,4.0,10.0,30,0.00,,---,0.00,VWS V14.01,2013-03-14 22:44:00,
2013-03-14 18:49:00,45.8,15.4,30.17,West,259,8.0,10.0,29,0.00,,---,0.00,VWS V14.01,2013-03-14 22:49:00,
2013-03-14 18:50:00,45.8,15.4,30.17,West,280,7.0,10.0,29,0.00,,---,0.00,VWS V14.01,2013-03-14 22:50:00,
2013-03-14 18:54:00,45.7,15.3,30.17,West,263,5.0,9.0,29,0.00,,---,0.00,VWS V14.01,2013-03-14 22:54:00,
2013-03-14 18:59:00,45.5,15.1,30.17,WNW,301,6.0,9.0,29,0.00,,---,0.00,VWS V14.01,2013-03-14 22:59:00,
2013-03-14 19:00:00,45.5,15.1,30.17,West,263,5.0,9.0,29,0.00,,---,0.00,VWS V14.01,2013-03-14 23:00:00,
2013-03-14 19:04:00,45.3,14.9,30.17,West,274,5.0,7.0,29,0.00,,---,0.00,VWS V14.01,2013-03-14 23:04:00,
2013-03-14 19:09:00,45.2,14.9,30.17,WNW,295,6.0,8.0,29,0.00,,---,0.00,VWS V14.01,2013-03-14 23:09:00,
2013-03-14 19:10:00,45.2,14.9,30.17,WNW,295,6.0,8.0,29,0.00,,---,0.00,VWS V14.01,2013-03-14 23:10:00,
2013-03-14 19:14:00,45.1,15.5,30.17,West,280,2.0,7.0,30,0.00,,---,0.00,VWS V14.01,2013-03-14 23:14:00,
2013-03-14 19:20:00,44.8,16.0,30.17,NW,304,3.0,3.0,31,0.00,,---,0.00,VWS V14.01,2013-03-14 23:20:00,
2013-03-14 19:25:00,44.7,14.4,30.17,West,260,4.0,8.0,29,0.00,,---,0.00,VWS V14.01,2013-03-14 23:25:00,
2013-03-14 19:30:00,44.5,15.0,30.17,WNW,297,2.0,5.0,30,0.00,,---,0.00,VWS V14.01,2013-03-14 23:30:00,
2013-03-14 19:35:00,44.2,15.5,30.17,WNW,283,4.0,5.0,31,0.00,,---,0.00,VWS V14.01,2013-03-14 23:35:00,
2013-03-14 19:40:00,44.1,15.4,30.17,WNW,287,3.0,3.0,31,0.00,,---,0.00,VWS V14.01,2013-03-14 23:40:00,
2013-03-14 19:45:00,43.9,16.0,30.17,WSW,240,3.0,10.0,32,0.00,,---,0.00,VWS V14.01,2013-03-14 23:45:00,
2013-03-14 19:50:00,43.9,15.2,30.17,West,270,3.0,10.0,31,0.00,,---,0.00,VWS V14.01,2013-03-14 23:50:00,
2013-03-14 19:51:00,43.8,16.6,30.17,WSW,240,2.0,4.0,33,0.00,,---,0.00,VWS V14.01,2013-03-14 23:51:00,
2013-03-14 19:56:00,43.4,16.2,30.17,WSW,243,3.0,4.0,33,0.00,,---,0.00,VWS V14.01,2013-03-14 23:56:00,
2013-03-14 20:00:00,43.2,16.1,30.17,SW,230,2.0,4.0,33,0.00,,---,0.00,VWS V14.01,2013-03-15 00:00:00,
2013-03-14 20:01:00,43.1,17.3,30.17,SW,230,2.0,2.0,35,0.00,,---,0.00,VWS V14.01,2013-03-15 00:01:00,
2013-03-14 20:06:00,42.0,17.6,30.17,SW,230,2.0,3.0,37,0.00,,---,0.00,VWS V14.01,2013-03-15 00:06:00,
2013-03-14 20:10:00,41.4,18.3,30.17,WSW,240,2.0,3.0,39,0.00,,---,0.00,VWS V14.01,2013-03-15 00:10:00,
2013-03-14 20:11:00,41.3,18.8,30.17,WSW,237,1.0,3.0,40,0.00,,---,0.00,VWS V14.01,2013-03-15 00:11:00,
2013-03-14 20:16:00,41.1,18.6,30.17,WSW,249,1.0,3.0,40,0.00,,---,0.00,VWS V14.01,2013-03-15 00:16:00,
2013-03-14 20:20:00,41.1,19.8,30.18,NNW,338,2.0,3.0,42,0.00,,---,0.00,VWS V14.01,2013-03-15 00:20:00,
2013-03-14 20:21:00,41.1,18.6,30.17,NNW,338,0.0,2.0,40,0.00,,---,0.00,VWS V14.01,2013-03-15 00:21:00,
2013-03-14 20:27:00,40.9,21.7,30.18,NNW,336,1.0,2.0,46,0.00,,---,0.00,VWS V14.01,2013-03-15 00:27:00,
2013-03-14 20:30:00,40.4,19.7,30.18,NW,307,0.0,3.0,43,0.00,,---,0.00,VWS V14.01,2013-03-15 00:30:00,
2013-03-14 20:32:00,40.0,20.9,30.17,NW,307,1.0,2.0,46,0.00,,---,0.00,VWS V14.01,2013-03-15 00:32:00,
2013-03-14 20:37:00,39.1,21.6,30.17,NW,305,0.0,2.0,49,0.00,,---,0.00,VWS V14.01,2013-03-15 00:37:00,
2013-03-14 20:40:00,38.9,20.9,30.17,NW,305,0.0,2.0,48,0.00,,---,0.00,VWS V14.01,2013-03-15 00:40:00,
2013-03-14 20:42:00,38.9,21.9,30.17,NW,305,0.0,0.0,50,0.00,,---,0.00,VWS V14.01,2013-03-15 00:42:00,
2013-03-14 20:47:00,38.6,21.6,30.17,WNW,300,1.0,2.0,50,0.00,,---,0.00,VWS V14.01,2013-03-15 00:47:00,
2013-03-14 20:50:00,38.2,22.1,30.17,WNW,300,0.0,2.0,52,0.00,,---,0.00,VWS V14.01,2013-03-15 00:50:00,
2013-03-14 20:52:00,37.8,22.2,30.18,WNW,300,0.0,2.0,53,0.00,,---,0.00,VWS V14.01,2013-03-15 00:52:00,
2013-03-14 20:58:00,37.3,21.8,30.18,WNW,300,0.0,2.0,53,0.00,,---,0.00,VWS V14.01,2013-03-15 00:58:00,
2013-03-14 21:00:00,37.1,22.4,30.18,SW,229,2.0,3.0,55,0.00,,---,0.00,VWS V14.01,2013-03-15 01:00:00,
2013-03-14 21:03:00,36.4,22.6,30.18,SW,229,1.0,2.0,57,0.00,,---,0.00,VWS V14.01,2013-03-15 01:03:00,
2013-03-14 21:08:00,35.8,21.6,30.18,SW,229,0.0,2.0,56,0.00,,---,0.00,VWS V14.01,2013-03-15 01:08:00,
2013-03-14 21:10:00,35.7,21.1,30.18,SW,229,1.0,2.0,55,0.00,,---,0.00,VWS V14.01,2013-03-15 01:10:00,
2013-03-14 21:13:00,35.7,22.8,30.18,SW,229,0.0,1.0,59,0.00,,---,0.00,VWS V14.01,2013-03-15 01:13:00,
2013-03-14 21:18:00,35.5,23.0,30.18,SW,229,2.0,2.0,60,0.00,,---,0.00,VWS V14.01,2013-03-15 01:18:00,
2013-03-14 21:20:00,35.3,22.8,30.18,WSW,240,2.0,3.0,60,0.00,,---,0.00,VWS V14.01,2013-03-15 01:20:00,
2013-03-14 21:23:00,35.0,21.7,30.18,SW,235,1.0,3.0,58,0.00,,---,0.00,VWS V14.01,2013-03-15 01:23:00,
2013-03-14 21:29:00,34.7,22.2,30.18,SW,235,0.0,3.0,60,0.00,,---,0.00,VWS V14.01,2013-03-15 01:29:00,
2013-03-14 21:30:00,34.6,22.5,30.18,SW,235,2.0,3.0,61,0.00,,---,0.00,VWS V14.01,2013-03-15 01:30:00,
2013-03-14 21:34:00,34.1,22.5,30.18,SW,234,2.0,3.0,62,0.00,,---,0.00,VWS V14.01,2013-03-15 01:34:00,
2013-03-14 21:39:00,33.9,21.1,30.18,SW,235,1.0,3.0,59,0.00,,---,0.00,VWS V14.01,2013-03-15 01:39:00,
2013-03-14 21:40:00,34.0,21.2,30.18,SW,235,1.0,3.0,59,0.00,,---,0.00,VWS V14.01,2013-03-15 01:40:00,
2013-03-14 21:44:00,34.0,23.1,30.18,SW,235,0.0,2.0,64,0.00,,---,0.00,VWS V14.01,2013-03-15 01:44:00,
2013-03-14 21:49:00,33.8,23.7,30.18,SW,234,1.0,2.0,66,0.00,,---,0.00,VWS V14.01,2013-03-15 01:49:00,
2013-03-14 21:50:00,33.8,23.7,30.18,SW,234,1.0,2.0,66,0.00,,---,0.00,VWS V14.01,2013-03-15 01:50:00,
2013-03-14 21:54:00,33.2,23.8,30.19,SW,235,0.0,2.0,68,0.00,,---,0.00,VWS V14.01,2013-03-15 01:54:00,
2013-03-14 22:00:00,32.9,23.9,30.19,SW,234,0.0,1.0,69,0.00,,---,0.00,VWS V14.01,2013-03-15 02:00:00,
2013-03-14 22:05:00,32.9,24.2,30.19,SW,235,0.0,1.0,70,0.00,,---,0.00,VWS V14.01,2013-03-15 02:05:00,
2013-03-14 22:10:00,32.8,24.1,30.19,SW,235,0.0,0.0,70,0.00,,---,0.00,VWS V14.01,2013-03-15 02:10:00,
2013-03-14 22:15:00,32.8,24.5,30.19,SW,234,1.0,3.0,71,0.00,,---,0.00,VWS V14.01,2013-03-15 02:15:00,
2013-03-14 22:20:00,32.6,24.2,30.19,SW,235,1.0,1.0,71,0.00,,---,0.00,VWS V14.01,2013-03-15 02:20:00,
2013-03-14 22:25:00,32.4,23.7,30.19,SW,234,0.0,2.0,70,0.00,,---,0.00,VWS V14.01,2013-03-15 02:25:00,
2013-03-14 22:30:00,32.5,23.5,30.19,SW,235,0.0,2.0,69,0.00,,---,0.00,VWS V14.01,2013-03-15 02:30:00,
2013-03-14 22:31:00,32.5,23.8,30.19,SE,137,2.0,2.0,70,0.00,,---,0.00,VWS V14.01,2013-03-15 02:31:00,
2013-03-14 22:36:00,32.3,22.9,30.19,West,276,1.0,3.0,68,0.00,,---,0.00,VWS V14.01,2013-03-15 02:36:00,
2013-03-14 22:40:00,32.4,23.0,30.19,West,268,1.0,3.0,68,0.00,,---,0.00,VWS V14.01,2013-03-15 02:40:00,
2013-03-14 22:41:00,32.3,22.6,30.19,West,268,0.0,1.0,67,0.00,,---,0.00,VWS V14.01,2013-03-15 02:41:00,
2013-03-14 22:46:00,32.4,22.3,30.19,West,268,0.0,1.0,66,0.00,,---,0.00,VWS V14.01,2013-03-15 02:46:00,
2013-03-14 22:50:00,32.5,24.2,30.19,West,268,0.0,2.0,71,0.00,,---,0.00,VWS V14.01,2013-03-15 02:50:00,
2013-03-14 22:51:00,32.5,24.2,30.19,West,268,0.0,0.0,71,0.00,,---,0.00,VWS V14.01,2013-03-15 02:51:00,
2013-03-14 22:57:00,32.5,23.5,30.19,West,268,1.0,1.0,69,0.00,,---,0.00,VWS V14.01,2013-03-15 02:57:00,
2013-03-14 23:00:00,32.5,23.1,30.19,West,268,0.0,1.0,68,0.00,,---,0.00,VWS V14.01,2013-03-15 03:00:00,
2013-03-14 23:02:00,32.6,22.5,30.19,West,268,0.0,0.0,66,0.00,,---,0.00,VWS V14.01,2013-03-15 03:02:00,
2013-03-14 23:07:00,32.8,23.4,30.19,West,268,0.0,3.0,68,0.00,,---,0.00,VWS V14.01,2013-03-15 03:07:00,
2013-03-14 23:10:00,33.0,22.2,30.19,West,268,1.0,3.0,64,0.00,,---,0.00,VWS V14.01,2013-03-15 03:10:00,
2013-03-14 23:13:00,33.5,21.5,30.19,WNW,294,2.0,3.0,61,0.00,,---,0.00,VWS V14.01,2013-03-15 03:13:00,
2013-03-14 23:18:00,34.4,22.7,30.20,WNW,294,0.0,3.0,62,0.00,,---,0.00,VWS V14.01,2013-03-15 03:18:00,
2013-03-14 23:20:00,34.6,22.5,30.20,WNW,294,1.0,3.0,61,0.00,,---,0.00,VWS V14.01,2013-03-15 03:20:00,
2013-03-14 23:23:00,35.1,20.6,30.20,WNW,289,3.0,3.0,55,0.00,,---,0.00,VWS V14.01,2013-03-15 03:23:00,
2013-03-14 23:28:00,36.3,20.8,30.20,WNW,298,0.0,3.0,53,0.00,,---,0.00,VWS V14.01,2013-03-15 03:28:00,
2013-03-14 23:30:00,36.4,20.9,30.20,WNW,298,1.0,3.0,53,0.00,,---,0.00,VWS V14.01,2013-03-15 03:30:00,
2013-03-14 23:34:00,36.8,20.4,30.20,WNW,298,1.0,1.0,51,0.00,,---,0.00,VWS V14.01,2013-03-15 03:34:00,
2013-03-14 23:39:00,36.9,20.0,30.20,WNW,298,1.0,2.0,50,0.00,,---,0.00,VWS V14.01,2013-03-15 03:39:00,
2013-03-14 23:40:00,36.9,19.5,30.20,WNW,289,0.0,2.0,49,0.00,,---,0.00,VWS V14.01,2013-03-15 03:40:00,
2013-03-14 23:44:00,37.3,19.4,30.20,WNW,301,2.0,4.0,48,0.00,,---,0.00,VWS V14.01,2013-03-15 03:44:00,
2013-03-14 23:49:00,37.7,19.8,30.20,NW,318,1.0,4.0,48,0.00,,---,0.00,VWS V14.01,2013-03-15 03:49:00,
2013-03-14 23:50:00,37.7,19.8,30.20,NW,318,1.0,4.0,48,0.00,,---,0.00,VWS V14.01,2013-03-15 03:50:00,
2013-03-14 23:54:00,37.7,20.3,30.20,NW,318,0.0,1.0,49,0.00,,---,0.00,VWS V14.01,2013-03-15 03:54:00,
2013-03-14 23:59:00,37.3,19.4,30.20,NW,313,1.0,3.0,48,0.00,,---,0.00,VWS V14.01,2013-03-15 03:59:00,